Voltar ao catálogo

STARLINK-30805

AtivoComunicaçõesVLEO
NORAD 58214·PAYLOAD·🇺🇸 United States

Lançado Nov 3, 2023 de Cape Canaveral Space Force Station

Loading…

Próximas Passagens (próximas 24 horas)

TLE

AtualizadoSource: CelesTrak SupGP

Época: Sep 14, 2026, 21:59 UTC

1 58214C 23170J   26257.91645833  .00009641  00000+0  34922-3 0  2573
2 58214  43.0017 205.2951 0001559 260.3261  58.6890 15.27570335    16

Acompanhe STARLINK-30805 em tempo real com AllMySat

Download on the App Store